Current weather by "City, St" or "zip code"  
 

Current Conditions: Charlotte, Fitch H Beach Airport, MI

Fair


39.0 F

Last Updated on Apr 23 2021, 5:55 am EDT
Humidity: 67%
Wind Speed: SW 6.9 mph
Barometer 30.00 in
Dewpoint: 28.4 F
Visibility: 10.00 mi
Precip: --
Heat Index: NA
Wind Chill: 34 F
Current conditions at:

Charlotte, Fitch H Beach Airport, MI (KFPK)

Lat: 42.57444 Lon: 84.81139

Local Radar Image active severe weather and emergency alerts image image weather storm and storm spotter reports image weather observation monitoring service image
Local
Radar
Active
Alerts
Storm Reports Obs
Monitoring

Sign-up For Email & Text Message Weather Alert Notification Services



Advertise Here

Observation History for Charlotte, Fitch H Beach Airport, MI


Time Wind
(mph)
Vis
(mi)
Weather Precip (in) Temperature (F) Relative
Humidity
Wind
Chill
(F)
Heat
Index
(F)
Pressure
Air Dwpt altimeter
(in)
sea level
(mb)
Rmks
5:55 am EDT SW 6.9 10.00 Fair -- 39.0 28.4 67% 34 NA 30.00 M
4:55 am EDT SW 5.8 10.00 Fair -- 35.0 26.6 71% 30 NA 29.99 M
3:55 am EDT S 3.5 10.00 Fair -- 31.0 25.5 80% NA NA 29.99 M
2:55 am EDT N 0.0 10.00 Fair -- 31.0 24.3 77% NA NA 30.01 M
1:55 am EDT N 0.0 10.00 Fair -- 30.0 24.8 80% NA NA 30.02 M
12:55 am EDT N 0.0 10.00 Fair -- 32.0 25.7 78% NA NA 30.03 M
11:55 pm EDT N 0.0 10.00 Fair -- 32.0 25.3 76% NA NA 30.03 M
10:55 pm EDT N 0.0 10.00 Fair -- 35.0 25.5 69% NA NA 30.03 M
9:55 pm EDT N 0.0 10.00 Fair -- 38.0 23.4 57% NA NA 30.03 M
8:55 pm EDT N 0.0 10.00 Fair -- 44.0 21.9 42% NA NA 30.02 M
7:55 pm EDT W 9.2 10.00 Fair -- 46.0 20.8 38% 41 NA 30.02 M
7:55 pm EDT W 9.2 10.00 Fair -- 46.0 20.8 38% 41 NA 30.02 M
6:55 pm EDT W 11.5 G 19.6 10.00 Fair -- 47.0 15.8 29% 42 NA 30.02 M
5:55 pm EDT W 12.7 G 19.6 10.00 Fair -- 48.0 14.9 26% 43 NA 30.02 M
4:55 pm EDT W 11.5 G 25.3 10.00 Fair -- 49.0 16.9 28% 44 NA 30.02 M
3:55 pm EDT W 15.0 G 24.2 10.00 Fair -- 48.0 18.5 30% 42 NA 30.02 M
2:55 pm EDT W 17.3 G 23.0 10.00 Partly Cloudy -- 49.0 17.8 29% 43 NA 30.03 M
1:55 pm EDT W 11.5 G 17.3 10.00 Overcast -- 46.0 18.5 34% 41 NA 30.03 M
12:55 pm EDT W 11.5 10.00 Overcast -- 43.0 24.3 48% 37 NA 30.05 M
11:55 am EDT W 13.8 G 20.7 10.00 Overcast -- 43.0 25.0 49% 36 NA 30.05 M
10:55 am EDT SW 9.2 G 17.3 10.00 Overcast -- 40.0 27.5 60% 34 NA 30.06 M
9:55 am EDT W 10.4 G 16.1 10.00 Mostly Cloudy -- 41.0 29.3 64% 35 NA 30.05 M
8:55 am EDT SW 5.8 10.00 Mostly Cloudy -- 33.0 25.3 73% 28 NA 30.06 M
7:55 am EDT N 0.0 10.00 Overcast -- 29.0 22.8 77% NA NA 30.05 M

Regional Weather Observation


Charlotte, Fitch H Beach Airport, MI (KFPK)

Fair
39.0 F

Capital Region International Airport, MI (KLAN)

Fair
38.0 F

Grand Rapids, Gerald R. Ford International Airport, MI (KGRR)

A Few Clouds
42.0 F

Battle Creek Executive Airport, MI (KBTL)

Fair
37.0 F

Brooks Field Airport, MI (KRMY)

Fair
37.0 F

Mason, Mason Jewett Field Airport, MI (KTEW)

Fair
38.0 F

Advertise Here


Advertise Here